Date,TemperatureHighF,TemperatureAvgF,TemperatureLowF,DewpointHighF,DewpointAvgF,DewpointLowF,HumidityHigh,HumidityAvg,HumidityLow,PressureMaxIn,PressureMinIn,WindSpeedMaxMPH,WindSpeedAvgMPH,GustSpeedMaxMPH,PrecipitationSumIn
2013-2-1,46,38,33,40,32,26,100,80,46,27.32,27.06,19,2,19,0.02
2013-2-2,49,33,23,32,26,23,100,78,43,27.46,27.23,9,1,9,0.01
2013-2-3,46,30,19,32,26,21,100,85,52,27.27,26.96,7,1,7,0.00
2013-2-4,47,38,31,33,30,28,93,74,51,27.02,26.91,14,3,14,0.00
2013-2-5,45,37,31,36,32,24,94,80,53,26.97,26.71,11,2,12,0.00
2013-2-6,44,36,25,33,29,23,99,77,47,27.08,26.85,15,2,15,0.02
2013-2-7,39,30,22,28,25,23,100,84,60,27.07,26.86,7,1,7,0.00
2013-2-8,43,33,26,32,28,24,100,83,62,27.01,26.89,14,2,14,0.00
2013-2-9,34,30,26,31,26,23,100,82,64,27.09,26.91,12,2,12,0.01
2013-2-10,41,29,22,29,23,18,100,81,42,27.19,27.05,20,2,20,0.03
2013-2-11,35,28,20,26,22,18,100,79,60,27.16,27.05,7,1,7,0.00
2013-2-12,40,34,30,33,28,24,93,78,63,27.16,27.03,12,1,12,0.01
2013-2-13,42,38,31,36,32,28,100,77,63,27.20,26.97,18,4,20,0.07
2013-2-14,42,34,24,31,27,21,100,76,42,27.36,27.20,15,2,15,0.00
2013-2-15,49,37,26,31,28,26,100,71,48,27.40,27.23,9,1,9,0.00
2013-2-16,42,32,21,36,29,21,100,87,64,27.29,26.78,16,2,17,0.05
2013-2-17,37,33,29,33,30,28,100,91,75,27.06,26.85,17,2,17,0.07
2013-2-18,43,33,26,33,25,18,100,74,37,27.08,26.80,14,2,14,0.02
2013-2-19,43,33,24,29,25,18,98,74,39,26.81,26.60,11,2,12,0.00
2013-2-20,39,32,27,33,25,18,100,76,47,26.94,26.78,16,2,16,0.02
2013-2-21,40,28,16,28,21,16,100,76,41,27.09,26.88,10,2,10,0.00
2013-2-22,44,35,26,29,26,21,100,71,41,26.98,26.60,23,3,23,0.00
2013-2-23,40,32,23,32,24,16,100,70,46,27.16,26.59,23,4,23,0.03
2013-2-24,40,30,23,24,22,18,90,70,42,27.21,27.11,17,2,17,0.00
2013-2-25,45,34,26,28,22,18,90,63,40,27.13,26.81,18,3,18,0.00
2013-2-26,38,32,24,31,24,16,98,73,42,27.27,27.00,15,2,15,0.00
2013-2-27,42,30,22,24,21,18,94,70,42,27.29,27.13,16,2,16,0.00
2013-2-28,45,35,25,35,30,23,99,81,60,27.29,27.17,9,2,9,0.03